| time (UTC) | temp F | wind direction | speed MPH | gust MPH | rain 1hr in | rain 24hr in | rain mn in | humidity % | barometer mb |
| 20260503030729 | 71 | 273 | 0.0 | 2.0 | 0.00 | 0.00 | 0.00 | 56 | 1018.5 |
| 20260503021802 | 72 | 289 | 0.0 | 2.0 | 0.00 | 0.00 | 0.00 | 55 | 1018.6 |
| 20260503013427 | 72 | 26 | 0.0 | 3.0 | 0.00 | 0.00 | 0.00 | 54 | 1018.8 |
| 20260503003429 | 71 | 150 | 1.0 | 3.0 | 0.00 | 0.00 | 0.00 | 58 | 1019.0 |
| 20260502235033 | 70 | 267 | 1.0 | 4.0 | 0.00 | 0.00 | 0.00 | 59 | 1019.2 |
| 20260502225027 | 69 | 107 | 0.0 | 4.0 | 0.00 | 0.00 | 0.00 | 60 | 1019.5 |
| 20260502215435 | 68 | 69 | 0.0 | 4.0 | 0.00 | 0.00 | 0.00 | 64 | 1019.6 |
| 20260502211133 | 67 | 40 | 0.0 | 4.0 | 0.00 | 0.00 | 0.00 | 67 | 1019.8 |
| 20260502202059 | 66 | 53 | 1.0 | 4.0 | 0.00 | 0.00 | 0.00 | 66 | 1020.0 |
| 20260502193408 | 65 | 140 | 0.0 | 3.0 | 0.00 | 0.00 | 0.00 | 68 | 1020.2 |
| 20260502183636 | 64 | 64 | 1.0 | 3.0 | 0.00 | 0.00 | 0.00 | 69 | 1020.4 |
| 20260502162744 | 63 | 144 | 0.0 | 2.0 | 0.00 | 0.00 | 0.00 | 74 | 1020.9 |
| 20260502150236 | 60 | 97 | 0.0 | 3.0 | 0.00 | 0.00 | 0.00 | 80 | 1021.2 |
| 20260502130132 | 55 | 98 | 0.0 | 3.0 | 0.00 | 0.00 | 0.00 | 84 | 1021.4 |
| 20260502120751 | 55 | 98 | 0.0 | 2.0 | 0.00 | 0.00 | 0.00 | 86 | 1021.6 |
| 20260502112321 | 53 | 98 | 0.0 | 3.0 | 0.00 | 0.00 | 0.00 | 88 | 1021.7 |
| 20260502104324 | 51 | 111 | 0.0 | 2.0 | 0.00 | 0.00 | 0.00 | 91 | 1021.7 |
| 20260502100448 | 48 | 111 | 0.0 | 0.0 | 0.00 | 0.00 | 0.00 | 93 | 1021.8 |
| 20260502064537 | 44 | 111 | 0.0 | 0.0 | 0.00 | 0.00 | 0.00 | 92 | 1021.9 |
| 20260502060528 | 44 | 111 | 0.0 | 0.0 | 0.00 | 0.00 | 0.00 | 92 | 1021.9 |
| 20260502052807 | 43 | 111 | 0.0 | 0.0 | 0.00 | 0.00 | 0.00 | 91 | 1021.8 |
| 20260502045046 | 43 | 111 | 0.0 | 0.0 | 0.00 | 0.00 | 0.00 | 91 | 1021.8 |
| 20260502041042 | 44 | 111 | 0.0 | 0.0 | 0.00 | 0.00 | 0.00 | 91 | 1021.8 |
| 20260502033719 | 44 | 111 | 0.0 | 0.0 | 0.00 | 0.00 | 0.00 | 91 | 1021.8 |